Meteo Giornale » Osservazioni meteo Egitto » Cairo

ore: 12:30 - Osservazioni Meteo Cairo
Lat. 30° 8' N Lon. 31° 24' E Alt. 64 metri s.l.m.

sereno Africa/Cairo

30 °C

Sereno

Temp. 24 Ore

22 °C

32 °C

Nord/NOvest

9.3 Km/h

Dew point 17 °C

Umidità 45 %

Visibilità  6 Km

Il sole sorge alle ore 05:56

Il sole tramonta alle ore 17:22

Data e Ora Cielo e Fenomeni T °C DP °C Um. % Pres. hPa Vis. km Vento km/h
Oggi h: 12:30 sereno Sereno 30 17 45 1017 6 N/NO 9.3
Oggi h: 12:00 sereno Sereno 29 17 48 1017 6 N 7.4
Oggi h: 11:30 sereno Sereno 28 17 51 1018 6 N 9.3
Oggi h: 11:00 sereno Sereno 28 17 51 1018 6 N 9.3
Oggi h: 10:30 poco_nuvoloso Poco Nuvoloso 26 18 61 1018 10 N/NE 9.3
Oggi h: 10:00 poco_nuvoloso Poco Nuvoloso 26 18 61 1018 10 N/NE 9.3
Oggi h: 09:30 nuvoloso Nuvoloso 24 19 73 1018 6 E/NE 11.1
Oggi h: 09:00 nuvoloso Nuvoloso 24 19 73 1018 6 E/NE 11.1
Oggi h: 08:30 nuvoloso Nuvoloso 23 19 78 1018 6 E/NE 11.1
Oggi h: 08:00 nuvoloso Nuvoloso 23 19 78 1018 6 E/NE 11.1
Oggi h: 07:30 sereno Sereno 22 20 88 1017 6 E 9.3
Oggi h: 07:00 sereno Sereno 22 20 88 1017 6 E 9.3
Oggi h: 05:30 sereno Sereno 22 19 83 1016 6 E 7.4
Oggi h: 05:00 sereno Sereno 22 19 83 1016 6 E 7.4
Oggi h: 04:30 sereno Sereno 22 18 78 1016 6 E 7.4
Oggi h: 04:00 sereno Sereno 22 18 78 1016 6 E 7.4
Oggi h: 03:30 sereno Sereno 23 18 73 1016 10 N 0
Oggi h: 03:00 sereno Sereno 23 18 73 1016 10 N 0
Oggi h: 02:30 sereno Sereno 23 19 78 1016 10 N 3.7
Oggi h: 02:00 sereno Sereno 23 19 78 1016 10 N 5.5
Oggi h: 01:30 sereno Sereno 24 20 78 1016 10 N 5.5
Oggi h: 01:00 sereno Sereno 24 19 73 1016 10 N 5.5
Oggi h: 00:30 sereno Sereno 24 19 73 1016 10 N/NE 9.3
Oggi h: 00:00 sereno Sereno 24 19 73 1017 10 N 9.3
Ieri h: 23:30 sereno Sereno 25 19 69 1017 10 N/NE 7.4
Ieri h: 23:00 sereno Sereno 25 19 69 1017 10 E/NE 9.3
Ieri h: 22:30 sereno Sereno 25 19 69 1017 10 E 7.4
Ieri h: 22:00 sereno Sereno 26 19 65 1017 10 N 7.4
Ieri h: 21:00 sereno Sereno 26 19 65 1017 10 N 11.1
Ieri h: 20:30 sereno Sereno 27 18 57 1016 10 N/NE 11.1
Ieri h: 20:00 sereno Sereno 27 18 57 1016 10 N 14.8
Ieri h: 19:30 sereno Sereno 28 17 51 1016 10 N 14.8
Ieri h: 19:00 sereno Sereno 28 17 51 1016 10 N 16.7
Ieri h: 17:00 sereno Sereno 31 15 37 1014 10 N/NO 16.7
Ieri h: 16:30 sereno Sereno 31 16 40 1014 10 N/NO 18.5
Ieri h: 16:00 sereno Sereno 32 16 38 1014 10 N/NO 13
Ieri h: 15:30 sereno Sereno 32 16 38 1014 10 NO 13
Ieri h: 15:00 sereno Sereno 32 17 40 1014 10 NO 14.8
Ieri h: 14:30 sereno Sereno 32 17 40 1014 6 NO 14.8
Ieri h: 14:00 sereno Sereno 31 17 43 1014 6 NO 16.7